Home   Weather   Steyr   Past weeks

Flag for Austria Past Weather in Steyr, Upper Austria, Austria — Yesterday and Last 2 Weeks

Now
49 °F

Cool.


Feels Like: 46 °F
Forecast: 38 / 64 °F
Wind: 7 mph from Northeast

Location: Kremsmuenster

Current Time: May 1, 2017 at 12:43:59 am

Latest Report: Apr 30, 2017 at 11:00 pm


Visibility: N/A

Pressure: 29.83 "Hg

Humidity: 61%

Dew Point: 36 °F

Location of SteyrLocation

Past Weather in Steyr — Graph

°F

Steyr Temperature Yesterday

Maximum temperature yesterday: 61 °F (at 5:00 pm)
Minimum temperature yesterday: 32 °F (at 7:00 am)
Average temperature yesterday: 47 °F

High & Low Weather Summary for the Past Weeks

 TemperatureHumidityPressure
High64 °F (Apr 25, 2:00 pm)97% (Apr 30, 8:00 am)30.57 "Hg (Apr 30, 8:00 am)
Low32 °F (Apr 30, 7:00 am)42% (Apr 30, 4:00 pm)29.70 "Hg (Apr 25, 4:00 pm)
Average43 °F75%30.10 "Hg
* Reported Apr 15 11:00 pm — Apr 30 11:00 pm, Steyr, Weather by CustomWeather, © 2017

Note: Actual official high and low records may vary slightly from our data, if they occured in-between our weather recording intervals... More about our weather records

Advertising

Steyr Weather History for the Previous 24 Hours

Scroll right to see more
 ConditionsComfort  
Time TempWeatherWind HumidityBarometerVisibility
11:00 pm
Sun, Apr 30
49 °FCool.7 mph61%29.83 "HgN/A
10:00 pm51 °FCool.7 mph58%29.84 "HgN/A
9:00 pm53 °FCool.9 mph54%29.84 "HgN/A
8:00 pm55 °FSunny.10 mph50%29.84 "Hg25 mi
7:00 pm58 °FRefreshingly cool.12 mph46%29.84 "HgN/A
6:00 pm60 °FRefreshingly cool.13 mph44%29.85 "HgN/A
5:00 pm61 °FSunny.14 mph42%29.87 "Hg31 mi
4:00 pm61 °FRefreshingly cool.12 mph42%29.88 "HgN/A
3:00 pm61 °FRefreshingly cool.9 mph49%29.90 "HgN/A
2:00 pm59 °FRefreshingly cool.9 mph49%29.93 "HgN/A
1:00 pm56 °FRefreshingly cool.10 mph49%29.96 "HgN/A
12:00 pm55 °FCool.8 mph52%29.99 "HgN/A
11:00 am52 °FCool.7 mph57%30.01 "HgN/A
10:00 am47 °FCool.7 mph65%30.03 "HgN/A
9:00 am39 °FChilly.3 mph87%30.08 "HgN/A
8:00 am34 °FFog.1 mph97%30.10 "Hg1 mi
7:00 am32 °FFog.1 mph96%30.11 "Hg0 mi
6:00 am33 °FChilly.1 mph92%30.11 "HgN/A
5:00 am33 °FChilly.1 mph93%30.11 "HgN/A
4:00 am35 °FChilly.No wind90%30.11 "HgN/A
3:00 am35 °FChilly.1 mph91%30.11 "HgN/A
2:00 am37 °FChilly.1 mph88%30.11 "HgN/A
1:00 am40 °FQuite cool.5 mph80%30.11 "HgN/A
12:00 am41 °FQuite cool.5 mph80%30.11 "HgN/A
Weather by CustomWeather, © 2017

See weather overviewHow to use our weather pages